Weather History for Carmi, IL

Change the Weather History Date:

Thursday, April 10, 2014

  Actual Average (KEVV) Record (KEVV)
Temperature  
Mean Temperature 63 °F 54 °F  
Max Temperature 80 °F 66 °F 85 °F (1977)
Min Temperature 46 °F 43 °F 24 °F (1966)
Degree Days  
Heating Degree Days 2 11  
Month to date heating degree days 126  
Since 1 July heating degree days 4292  
Cooling Degree Days 0 1  
Month to date cooling degree days 2  
Year to date cooling degree days 5  
Growing Degree Days 13 (Base 50)    
Moisture  
Dew Point 45 °F    
Average Humidity 54    
Maximum Humidity 81    
Minimum Humidity 31    
Precipitation  
Precipitation 0.00 in 0.14 in 1.67 in (2008)
Month to date precipitation 1.34  
Year to date precipitation 11.85  
Snow  
Snow 0.00 in 0.00 in 0.30 in (1973)
Month to date snowfall 0.1  
Since 1 July snowfall 11.8  
Snow Depth -    
Sea Level Pressure  
Sea Level Pressure 29.93 in    
Wind  
Wind Speed 13 mph (SSW)    
Max Wind Speed 31 mph    
Max Gust Speed 43 mph    
Visibility 10 miles    
Events      
T = Trace of Precipitation, MM = Missing Value Source: NWS Daily Summary

Daily Weather History Graph

Daily Weather History Graph

Search for Another Location

Airport:

Trip Planner

Search our weather history database for the weather conditions in past years. The results will help you decide how hot, cold, wet, or windy it might be!

Date:

Astronomy

Apr. 10, 2014 Rise Set
Actual Time 6:24 AM CDT 7:23 PM CDT
Civil Twilight 5:57 AM CDT 7:50 PM CDT
Nautical Twilight 5:25 AM CDT 8:23 PM CDT
Astronomical Twilight 4:52 AM CDT 8:56 PM CDT
Moon 3:11 PM CDT (4/10) 3:42 AM CDT (4/10)
Length of Visible Light 13h 53m
Length of Day
12h 59m
Waxing Gibbous, 80% of the Moon is Illuminated
Apr 10
Waxing Gibbous
Apr 15
Full
Apr 22
Last Quarter
Apr 29
New
May 6
First Quarter

Hourly Weather History & Observations

Time (CDT) Temp. Dew Point Humidity Pressure Visibility Wind Dir Wind Speed Gust Speed Precip Events Conditions
12:15 AM 50.7 °F 41.9 °F 72% 30.04 in 10.0 mi South 8.1 mph - N/A   Clear
12:35 AM 50.9 °F 41.2 °F 69% 30.04 in 10.0 mi South 8.1 mph - N/A   Clear
12:55 AM 50.0 °F 41.2 °F 72% 30.04 in 10.0 mi South 9.2 mph - N/A   Clear
1:15 AM 50.2 °F 40.8 °F 70% 30.03 in 10.0 mi South 9.2 mph - N/A   Clear
1:35 AM 49.3 °F 41.0 °F 73% 30.02 in 10.0 mi South 8.1 mph - N/A   Clear
1:55 AM 49.5 °F 41.0 °F 73% 30.02 in 10.0 mi South 8.1 mph - N/A   Clear
2:15 AM 49.3 °F 41.0 °F 73% 30.01 in 10.0 mi South 8.1 mph - N/A   Clear
2:35 AM 50.2 °F 40.5 °F 69% 30.01 in 10.0 mi South 8.1 mph - N/A   Clear
2:55 AM 48.0 °F 41.2 °F 77% 30.00 in 10.0 mi SSE 8.1 mph - N/A   Clear
3:15 AM 47.3 °F 41.2 °F 79% 30.00 in 10.0 mi SSE 8.1 mph - N/A   Clear
3:35 AM 47.7 °F 41.2 °F 78% 30.00 in 10.0 mi South 5.8 mph - N/A   Clear
3:55 AM 47.3 °F 41.0 °F 79% 29.99 in 10.0 mi South 5.8 mph - N/A   Clear
4:15 AM 46.6 °F 41.2 °F 81% 29.99 in 10.0 mi South 5.8 mph - N/A   Clear
4:35 AM 47.3 °F 41.0 °F 79% 29.99 in 10.0 mi South 5.8 mph - N/A   Clear
4:55 AM 47.8 °F 41.0 °F 77% 29.99 in 10.0 mi South 6.9 mph - N/A   Clear
5:15 AM 48.9 °F 41.2 °F 75% 29.99 in 10.0 mi South 6.9 mph - N/A   Clear
5:35 AM 49.1 °F 41.4 °F 75% 29.99 in 10.0 mi South 6.9 mph - N/A   Clear
5:55 AM 48.7 °F 41.4 °F 76% 29.98 in 10.0 mi South 8.1 mph - N/A   Clear
6:15 AM 49.3 °F 41.4 °F 74% 29.98 in 10.0 mi South 8.1 mph - N/A   Clear
6:35 AM 50.0 °F 41.9 °F 74% 29.98 in 10.0 mi South 9.2 mph - N/A   Clear
6:55 AM 50.9 °F 42.1 °F 72% 29.98 in 10.0 mi South 11.5 mph - N/A   Clear
7:15 AM 52.0 °F 42.3 °F 69% 29.99 in 10.0 mi South 11.5 mph - N/A   Clear
7:35 AM 53.4 °F 43.0 °F 68% 29.99 in 10.0 mi South 10.4 mph - N/A   Clear
7:55 AM 54.7 °F 43.3 °F 66% 29.98 in 10.0 mi South 15.0 mph - N/A   Clear
8:15 AM 56.3 °F 43.9 °F 63% 29.98 in 10.0 mi South 17.3 mph 23.0 mph N/A   Clear
8:35 AM 57.6 °F 44.2 °F 61% 29.97 in 10.0 mi South 16.1 mph 23.0 mph N/A   Clear
8:55 AM 59.0 °F 45.3 °F 60% 29.97 in 10.0 mi South 17.3 mph - N/A   Clear
9:15 AM 60.4 °F 46.0 °F 59% 29.96 in 10.0 mi South 20.7 mph - N/A   Clear
9:35 AM 61.0 °F 46.8 °F 59% 29.95 in 10.0 mi South 23.0 mph - N/A   Clear
9:55 AM 63.3 °F 47.3 °F 56% 29.94 in 10.0 mi South 23.0 mph - N/A   Clear
10:15 AM 65.1 °F 48.6 °F 55% 29.94 in 10.0 mi South 19.6 mph 25.3 mph N/A   Clear
10:35 AM 67.1 °F 49.1 °F 52% 29.93 in 10.0 mi South 21.9 mph 26.5 mph N/A   Clear
10:55 AM 68.5 °F 48.7 °F 49% 29.92 in 10.0 mi South 23.0 mph 29.9 mph N/A   Clear
11:15 AM 69.8 °F 49.1 °F 48% 29.92 in 10.0 mi South 25.3 mph 29.9 mph N/A   Clear
11:35 AM 71.2 °F 50.4 °F 48% 29.92 in 10.0 mi South 21.9 mph 26.5 mph N/A   Clear
11:55 AM 73.0 °F 47.5 °F 40% 29.91 in 10.0 mi SSW 19.6 mph 32.2 mph N/A   Clear
12:15 PM 74.1 °F 48.9 °F 41% 29.91 in 10.0 mi SSW 18.4 mph 33.4 mph N/A   Clear
12:35 PM 74.1 °F 47.3 °F 38% 29.90 in 10.0 mi SSW 24.2 mph 33.4 mph N/A   Clear
12:55 PM 75.4 °F 47.3 °F 37% 29.88 in 10.0 mi South 31.1 mph 36.8 mph N/A   Clear
1:15 PM 75.9 °F 48.7 °F 38% 29.88 in 10.0 mi South 28.8 mph 35.7 mph N/A   Clear
1:35 PM 76.1 °F 48.0 °F 37% 29.87 in 10.0 mi South 28.8 mph 38.0 mph N/A   Clear
1:55 PM 76.8 °F 48.7 °F 37% 29.87 in 10.0 mi South 29.9 mph 38.0 mph N/A   Clear
2:15 PM 77.7 °F 47.8 °F 35% 29.87 in 10.0 mi SSW 28.8 mph 38.0 mph N/A   Clear
2:35 PM 77.9 °F 47.5 °F 34% 29.86 in 10.0 mi SSW 29.9 mph 39.1 mph N/A   Clear
2:55 PM 78.4 °F 49.6 °F 36% 29.84 in 10.0 mi South 26.5 mph 31.1 mph N/A   Clear
3:15 PM 79.0 °F 47.5 °F 33% 29.84 in 10.0 mi SSW 27.6 mph 42.6 mph N/A   Clear
3:35 PM 79.7 °F 46.8 °F 31% 29.84 in 10.0 mi SSW 26.5 mph 36.8 mph N/A   Clear
3:55 PM 80.1 °F 47.3 °F 32% 29.84 in 10.0 mi SW 24.2 mph 33.4 mph N/A   Clear
4:15 PM 79.7 °F 46.4 °F 31% 29.84 in 10.0 mi SSW 27.6 mph 40.3 mph N/A   Clear
4:35 PM 79.5 °F 47.5 °F 32% 29.84 in 10.0 mi SSW 18.4 mph 29.9 mph N/A   Clear
4:55 PM 79.3 °F 46.8 °F 32% 29.84 in 10.0 mi SW 25.3 mph 33.4 mph N/A   Clear
5:15 PM 78.8 °F 45.9 °F 31% 29.85 in 10.0 mi SSW 27.6 mph 36.8 mph N/A   Clear
5:35 PM 78.3 °F 45.9 °F 32% 29.84 in 10.0 mi SSW 19.6 mph 34.5 mph N/A   Clear
5:55 PM 77.2 °F 45.7 °F 33% 29.85 in 10.0 mi SSW 25.3 mph 33.4 mph N/A   Clear
6:15 PM 77.0 °F 45.0 °F 32% 29.84 in 10.0 mi SSW 24.2 mph 31.1 mph N/A   Clear
6:35 PM 76.1 °F 44.1 °F 32% 29.84 in 10.0 mi SSW 23.0 mph 39.1 mph N/A   Clear
6:55 PM 74.8 °F 44.6 °F 34% 29.85 in 10.0 mi SSW 19.6 mph 27.6 mph N/A   Clear
7:15 PM 74.7 °F 43.7 °F 33% 29.85 in 10.0 mi SSW 24.2 mph 29.9 mph N/A   Clear
7:35 PM 74.7 °F 42.8 °F 32% 29.86 in 10.0 mi SSW 19.6 mph 28.8 mph N/A   Clear
7:55 PM 74.5 °F 42.6 °F 32% 29.87 in 10.0 mi SSW 18.4 mph 28.8 mph N/A   Scattered Clouds
8:15 PM 73.6 °F 43.5 °F 34% 29.89 in 10.0 mi SSW 13.8 mph 19.6 mph N/A   Mostly Cloudy
8:35 PM 72.5 °F 44.8 °F 37% 29.89 in 10.0 mi SSW 10.4 mph - N/A   Overcast
8:55 PM 71.4 °F 45.9 °F 40% 29.92 in 10.0 mi West 6.9 mph - N/A   Mostly Cloudy
9:15 PM 69.4 °F 46.8 °F 44% 29.93 in 10.0 mi West 5.8 mph - N/A   Scattered Clouds
9:35 PM 68.7 °F 46.4 °F 45% 29.93 in 10.0 mi SSW 4.6 mph - N/A   Clear
9:55 PM 62.1 °F 50.5 °F 66% 29.94 in 10.0 mi SSW 5.8 mph - N/A   Clear
10:15 PM 63.1 °F 50.7 °F 64% 29.94 in 10.0 mi SSW 4.6 mph - N/A   Clear
10:35 PM 66.0 °F 48.9 °F 54% 29.94 in 10.0 mi SSW 5.8 mph - N/A   Clear
10:55 PM 63.7 °F 50.0 °F 61% 29.94 in 10.0 mi South 4.6 mph - N/A   Clear
11:15 PM 60.4 °F 50.5 °F 70% 29.94 in 10.0 mi South 6.9 mph - N/A   Clear
11:35 PM 62.1 °F 49.5 °F 63% 29.95 in 10.0 mi SW 3.5 mph - N/A   Clear
11:55 PM 65.5 °F 48.9 °F 55% 29.95 in 10.0 mi SW 5.8 mph - N/A   Scattered Clouds